Time,TemperatureF,DewpointF,PressureIn,WindDirection,WindDirectionDegrees,WindSpeedMPH,WindSpeedGustMPH,Humidity,HourlyPrecipIn,Conditions,Clouds,dailyrainin,SoftwareType,DateUTC
2013-06-27 00:01:00,76.3,72.5,30.03,North,0,0.0,0.0,88,0.00,,,0.00,WUHU21623XXSP,2013-06-27 05:01:00,
2013-06-27 00:06:00,76.1,72.3,30.02,North,0,0.0,0.0,88,0.00,,,0.00,WUHU21623XXSP,2013-06-27 05:06:00,
2013-06-27 00:11:00,76.1,72.3,30.02,North,0,0.0,0.0,88,0.00,,,0.00,WUHU21623XXSP,2013-06-27 05:11:00,
2013-06-27 00:16:00,76.1,72.3,30.02,North,0,0.0,0.0,88,0.00,,,0.00,WUHU21623XXSP,2013-06-27 05:16:00,
2013-06-27 00:21:00,76.1,72.3,30.02,North,0,0.0,0.0,88,0.00,,,0.00,WUHU21623XXSP,2013-06-27 05:21:00,
2013-06-27 00:26:00,76.1,72.3,30.02,North,0,0.0,0.0,88,0.00,,,0.00,WUHU21623XXSP,2013-06-27 05:26:00,
2013-06-27 00:31:00,75.9,72.2,30.02,North,0,0.0,0.0,88,0.00,,,0.00,WUHU21623XXSP,2013-06-27 05:31:00,
2013-06-27 00:36:00,75.9,72.2,30.02,North,0,0.0,0.0,88,0.00,,,0.00,WUHU21623XXSP,2013-06-27 05:36:00,
2013-06-27 00:41:00,75.9,72.2,30.02,North,0,0.0,0.0,88,0.00,,,0.00,WUHU21623XXSP,2013-06-27 05:41:00,
2013-06-27 00:46:00,75.9,72.2,30.01,North,0,0.0,0.0,88,0.00,,,0.00,WUHU21623XXSP,2013-06-27 05:46:00,
2013-06-27 00:51:00,75.7,72.0,30.02,North,0,0.0,0.0,88,0.00,,,0.00,WUHU21623XXSP,2013-06-27 05:51:00,
2013-06-27 00:56:00,75.7,72.0,30.02,North,0,0.0,0.0,88,0.00,,,0.00,WUHU21623XXSP,2013-06-27 05:56:00,
2013-06-27 01:01:00,75.7,72.0,30.02,North,0,0.0,0.0,88,0.00,,,0.00,WUHU21623XXSP,2013-06-27 06:01:00,
2013-06-27 01:06:00,75.6,72.1,30.01,North,0,0.0,0.0,89,0.00,,,0.00,WUHU21623XXSP,2013-06-27 06:06:00,
2013-06-27 01:11:00,75.4,72.0,30.01,North,0,0.0,0.0,89,0.00,,,0.00,WUHU21623XXSP,2013-06-27 06:11:00,
2013-06-27 01:16:00,75.4,72.0,30.01,North,0,0.0,0.0,89,0.00,,,0.00,WUHU21623XXSP,2013-06-27 06:16:00,
2013-06-27 01:21:00,75.4,72.0,30.01,North,0,0.0,0.0,89,0.00,,,0.00,WUHU21623XXSP,2013-06-27 06:21:00,
2013-06-27 01:26:00,75.2,71.8,30.01,North,0,0.0,0.0,89,0.00,,,0.00,WUHU21623XXSP,2013-06-27 06:26:00,
2013-06-27 01:31:00,75.0,71.6,30.01,North,0,0.0,0.0,89,0.00,,,0.00,WUHU21623XXSP,2013-06-27 06:31:00,
2013-06-27 01:36:00,75.0,71.6,30.00,North,0,0.0,0.0,89,0.00,,,0.00,WUHU21623XXSP,2013-06-27 06:36:00,
2013-06-27 01:41:00,75.0,71.6,30.00,North,0,0.0,0.0,89,0.00,,,0.00,WUHU21623XXSP,2013-06-27 06:41:00,
2013-06-27 01:46:00,74.8,71.4,30.00,North,0,0.0,0.0,89,0.00,,,0.00,WUHU21623XXSP,2013-06-27 06:46:00,
2013-06-27 01:51:00,74.8,71.4,30.00,North,0,0.0,0.0,89,0.00,,,0.00,WUHU21623XXSP,2013-06-27 06:51:00,
2013-06-27 01:56:00,74.8,71.4,30.00,North,0,0.0,0.0,89,0.00,,,0.00,WUHU21623XXSP,2013-06-27 06:56:00,
2013-06-27 02:01:00,74.8,71.4,30.00,North,0,0.0,0.0,89,0.00,,,0.00,WUHU21623XXSP,2013-06-27 07:01:00,
2013-06-27 02:06:00,74.7,71.3,30.00,North,0,0.0,0.0,89,0.00,,,0.00,WUHU21623XXSP,2013-06-27 07:06:00,
2013-06-27 02:11:00,74.5,71.4,30.00,North,0,0.0,0.0,90,0.00,,,0.00,WUHU21623XXSP,2013-06-27 07:11:00,
2013-06-27 02:16:00,74.7,71.4,30.00,North,0,0.0,0.0,90,0.00,,,0.00,WUHU21623XXSP,2013-06-27 07:16:00,
2013-06-27 02:21:00,74.7,71.9,30.00,North,0,0.0,0.0,91,0.00,,,0.00,WUHU21623XXSP,2013-06-27 07:21:00,
2013-06-27 02:26:00,74.5,71.7,30.00,North,0,0.0,0.0,91,0.00,,,0.00,WUHU21623XXSP,2013-06-27 07:26:00,
2013-06-27 02:31:00,74.5,71.7,30.00,North,0,0.0,0.0,91,0.00,,,0.00,WUHU21623XXSP,2013-06-27 07:31:00,
2013-06-27 02:36:00,74.5,71.7,30.00,North,0,0.0,0.0,91,0.00,,,0.00,WUHU21623XXSP,2013-06-27 07:36:00,
2013-06-27 02:41:00,74.5,71.7,30.00,North,0,0.0,0.0,91,0.00,,,0.00,WUHU21623XXSP,2013-06-27 07:41:00,
2013-06-27 02:46:00,74.5,71.7,30.01,North,0,0.0,0.0,91,0.00,,,0.00,WUHU21623XXSP,2013-06-27 07:46:00,
2013-06-27 02:51:00,74.5,71.7,30.00,North,0,0.0,0.0,91,0.00,,,0.00,WUHU21623XXSP,2013-06-27 07:51:00,
2013-06-27 02:56:00,74.5,71.7,30.00,North,0,0.0,0.0,91,0.00,,,0.00,WUHU21623XXSP,2013-06-27 07:56:00,
2013-06-27 03:01:00,74.5,71.7,30.00,North,0,0.0,0.0,91,0.00,,,0.00,WUHU21623XXSP,2013-06-27 08:01:00,
2013-06-27 03:06:00,74.5,71.7,29.99,North,0,0.0,0.0,91,0.00,,,0.00,WUHU21623XXSP,2013-06-27 08:06:00,
2013-06-27 03:11:00,74.5,71.7,30.00,North,0,0.0,0.0,91,0.00,,,0.00,WUHU21623XXSP,2013-06-27 08:11:00,
2013-06-27 03:16:00,74.5,71.7,29.99,North,0,0.0,0.0,91,0.00,,,0.00,WUHU21623XXSP,2013-06-27 08:16:00,
2013-06-27 03:21:00,74.5,71.7,30.00,North,0,0.0,0.0,91,0.00,,,0.00,WUHU21623XXSP,2013-06-27 08:21:00,
2013-06-27 03:26:00,74.5,71.7,29.99,North,0,0.0,0.0,91,0.00,,,0.00,WUHU21623XXSP,2013-06-27 08:26:00,
2013-06-27 03:31:00,74.5,71.7,29.99,North,0,0.0,0.0,91,0.00,,,0.00,WUHU21623XXSP,2013-06-27 08:31:00,
2013-06-27 03:36:00,74.5,71.7,30.00,North,0,0.0,0.0,91,0.00,,,0.00,WUHU21623XXSP,2013-06-27 08:36:00,
2013-06-27 03:41:00,74.3,71.7,30.00,North,0,0.0,0.0,91,0.00,,,0.00,WUHU21623XXSP,2013-06-27 08:41:00,
2013-06-27 03:46:00,74.3,71.5,30.00,North,0,0.0,0.0,91,0.00,,,0.00,WUHU21623XXSP,2013-06-27 08:46:00,
2013-06-27 03:51:00,74.1,71.4,30.00,North,0,0.0,0.0,91,0.00,,,0.00,WUHU21623XXSP,2013-06-27 08:51:00,
2013-06-27 03:56:00,74.1,71.4,30.00,North,0,0.0,0.0,91,0.00,,,0.00,WUHU21623XXSP,2013-06-27 08:56:00,
2013-06-27 04:01:00,74.1,71.4,30.00,North,0,0.0,0.0,91,0.00,,,0.00,WUHU21623XXSP,2013-06-27 09:01:00,
2013-06-27 04:06:00,74.1,71.4,30.00,North,0,0.0,0.0,91,0.00,,,0.00,WUHU21623XXSP,2013-06-27 09:06:00,
2013-06-27 04:11:00,73.9,71.2,30.00,North,0,0.0,0.0,92,0.00,,,0.00,WUHU21623XXSP,2013-06-27 09:11:00,
2013-06-27 04:16:00,73.9,71.5,30.01,North,0,0.0,0.0,92,0.00,,,0.00,WUHU21623XXSP,2013-06-27 09:16:00,
2013-06-27 04:21:00,73.9,71.2,30.00,North,0,0.0,0.0,91,0.00,,,0.00,WUHU21623XXSP,2013-06-27 09:21:00,
2013-06-27 04:26:00,73.8,71.0,30.01,North,0,0.0,0.0,91,0.00,,,0.00,WUHU21623XXSP,2013-06-27 09:26:00,
2013-06-27 04:31:00,73.8,71.0,30.02,North,0,0.0,0.0,91,0.00,,,0.00,WUHU21623XXSP,2013-06-27 09:31:00,
2013-06-27 04:36:00,73.8,71.0,30.02,North,0,0.0,0.0,91,0.00,,,0.00,WUHU21623XXSP,2013-06-27 09:36:00,
2013-06-27 04:41:00,73.6,70.8,30.01,North,0,0.0,0.0,91,0.00,,,0.00,WUHU21623XXSP,2013-06-27 09:41:00,
2013-06-27 04:46:00,73.6,71.1,30.01,North,0,0.0,0.0,92,0.00,,,0.00,WUHU21623XXSP,2013-06-27 09:46:00,
2013-06-27 04:51:00,73.6,71.1,30.01,North,0,0.0,0.0,92,0.00,,,0.00,WUHU21623XXSP,2013-06-27 09:51:00,
2013-06-27 04:56:00,73.6,71.1,30.01,North,0,0.0,0.0,92,0.00,,,0.00,WUHU21623XXSP,2013-06-27 09:56:00,
2013-06-27 05:01:00,73.6,71.1,30.01,North,0,0.0,0.0,92,0.00,,,0.00,WUHU21623XXSP,2013-06-27 10:01:00,
2013-06-27 05:06:00,73.6,71.1,30.01,North,0,0.0,0.0,92,0.00,,,0.00,WUHU21623XXSP,2013-06-27 10:06:00,
2013-06-27 05:11:00,73.6,71.1,30.01,North,0,0.0,0.0,92,0.00,,,0.00,WUHU21623XXSP,2013-06-27 10:11:00,
2013-06-27 05:16:00,73.6,71.1,30.01,North,0,0.0,0.0,92,0.00,,,0.00,WUHU21623XXSP,2013-06-27 10:16:00,
2013-06-27 05:21:00,73.6,71.1,30.01,North,0,0.0,0.0,92,0.00,,,0.00,WUHU21623XXSP,2013-06-27 10:21:00,
2013-06-27 05:26:00,73.6,71.1,30.01,North,0,0.0,0.0,92,0.00,,,0.00,WUHU21623XXSP,2013-06-27 10:26:00,
2013-06-27 05:31:00,73.6,71.1,30.02,North,0,0.0,0.0,92,0.00,,,0.00,WUHU21623XXSP,2013-06-27 10:31:00,
2013-06-27 05:36:00,73.6,71.1,30.02,North,0,0.0,0.0,92,0.00,,,0.00,WUHU21623XXSP,2013-06-27 10:36:00,
2013-06-27 05:41:00,73.6,71.1,30.02,North,0,0.0,0.0,92,0.00,,,0.00,WUHU21623XXSP,2013-06-27 10:41:00,
2013-06-27 05:46:00,73.6,71.1,30.02,North,0,0.0,0.0,92,0.00,,,0.00,WUHU21623XXSP,2013-06-27 10:46:00,
2013-06-27 05:51:00,73.6,71.1,30.02,North,0,0.0,0.0,92,0.00,,,0.00,WUHU21623XXSP,2013-06-27 10:51:00,
2013-06-27 05:56:00,73.6,71.1,30.02,North,0,0.0,0.0,92,0.00,,,0.00,WUHU21623XXSP,2013-06-27 10:56:00,
2013-06-27 06:01:00,73.6,71.1,30.02,North,0,0.0,0.0,92,0.00,,,0.00,WUHU21623XXSP,2013-06-27 11:01:00,
2013-06-27 06:06:00,73.6,71.1,30.02,North,0,0.0,0.0,92,0.00,,,0.00,WUHU21623XXSP,2013-06-27 11:06:00,
2013-06-27 06:11:00,73.6,71.1,30.03,North,0,0.0,0.0,92,0.00,,,0.00,WUHU21623XXSP,2013-06-27 11:11:00,
2013-06-27 06:16:00,73.6,71.1,30.02,North,0,0.0,0.0,92,0.00,,,0.00,WUHU21623XXSP,2013-06-27 11:16:00,
2013-06-27 06:21:00,73.6,71.1,30.03,North,0,0.0,0.0,92,0.00,,,0.00,WUHU21623XXSP,2013-06-27 11:21:00,
2013-06-27 06:26:00,73.8,71.3,30.03,North,0,0.0,0.0,92,0.00,,,0.00,WUHU21623XXSP,2013-06-27 11:26:00,
2013-06-27 06:31:00,73.8,71.3,30.02,North,0,0.0,0.0,92,0.00,,,0.00,WUHU21623XXSP,2013-06-27 11:31:00,
2013-06-27 06:36:00,73.8,71.3,30.02,North,0,0.0,0.0,92,0.00,,,0.00,WUHU21623XXSP,2013-06-27 11:36:00,
2013-06-27 06:41:00,73.6,71.1,30.02,North,0,0.0,0.0,92,0.00,,,0.00,WUHU21623XXSP,2013-06-27 11:41:00,
2013-06-27 06:46:00,73.9,71.3,30.02,North,0,0.0,0.0,92,0.00,,,0.00,WUHU21623XXSP,2013-06-27 11:46:00,
2013-06-27 06:51:00,73.9,71.5,30.02,North,0,0.0,0.0,92,0.00,,,0.00,WUHU21623XXSP,2013-06-27 11:51:00,
2013-06-27 06:56:00,74.1,71.7,30.03,North,0,0.0,0.0,92,0.00,,,0.00,WUHU21623XXSP,2013-06-27 11:56:00,
2013-06-27 07:01:00,74.1,71.7,30.02,North,0,0.0,0.0,92,0.00,,,0.00,WUHU21623XXSP,2013-06-27 12:01:00,
2013-06-27 07:06:00,74.5,72.3,30.02,North,0,0.0,0.0,93,0.00,,,0.00,WUHU21623XXSP,2013-06-27 12:06:00,
2013-06-27 07:11:00,74.8,72.7,30.02,North,0,0.0,0.0,93,0.00,,,0.00,WUHU21623XXSP,2013-06-27 12:11:00,
2013-06-27 07:16:00,75.4,72.9,30.02,North,0,0.0,0.0,93,0.00,,,0.00,WUHU21623XXSP,2013-06-27 12:16:00,
2013-06-27 07:21:00,75.7,73.4,30.02,North,0,0.0,0.0,93,0.00,,,0.00,WUHU21623XXSP,2013-06-27 12:21:00,
2013-06-27 07:26:00,75.9,73.8,30.02,North,0,0.0,0.0,93,0.00,,,0.00,WUHU21623XXSP,2013-06-27 12:26:00,
2013-06-27 07:31:00,76.6,74.5,30.03,North,0,0.0,0.0,93,0.00,,,0.00,WUHU21623XXSP,2013-06-27 12:31:00,
2013-06-27 07:36:00,76.8,74.7,30.03,North,0,0.0,0.0,93,0.00,,,0.00,WUHU21623XXSP,2013-06-27 12:36:00,
2013-06-27 07:41:00,77.2,75.3,30.03,North,0,0.0,0.0,94,0.00,,,0.00,WUHU21623XXSP,2013-06-27 12:41:00,
2013-06-27 07:46:00,77.7,75.9,30.03,North,0,0.0,0.0,94,0.00,,,0.00,WUHU21623XXSP,2013-06-27 12:46:00,
2013-06-27 07:51:00,77.9,75.9,30.03,North,0,0.0,0.0,94,0.00,,,0.00,WUHU21623XXSP,2013-06-27 12:51:00,
2013-06-27 07:56:00,78.3,76.4,30.03,North,0,0.0,0.0,94,0.00,,,0.00,WUHU21623XXSP,2013-06-27 12:56:00,
2013-06-27 08:01:00,79.0,76.5,30.03,North,0,0.0,0.0,93,0.00,,,0.00,WUHU21623XXSP,2013-06-27 13:01:00,
2013-06-27 08:06:00,79.2,76.8,30.02,North,0,0.0,0.0,92,0.00,,,0.00,WUHU21623XXSP,2013-06-27 13:06:00,
2013-06-27 08:11:00,79.5,77.0,30.02,North,0,0.0,0.0,92,0.00,,,0.00,WUHU21623XXSP,2013-06-27 13:11:00,
2013-06-27 08:16:00,79.9,77.2,30.03,North,0,0.0,0.0,92,0.00,,,0.00,WUHU21623XXSP,2013-06-27 13:16:00,
2013-06-27 08:21:00,80.2,77.3,30.03,North,0,0.0,0.0,91,0.00,,,0.00,WUHU21623XXSP,2013-06-27 13:21:00,
2013-06-27 08:26:00,80.4,77.2,30.03,North,0,0.0,0.0,90,0.00,,,0.00,WUHU21623XXSP,2013-06-27 13:26:00,
2013-06-27 08:31:00,81.1,77.4,30.03,North,0,0.0,0.0,88,0.00,,,0.00,WUHU21623XXSP,2013-06-27 13:31:00,
2013-06-27 08:36:00,81.3,77.4,30.03,North,0,0.0,0.0,88,0.00,,,0.00,WUHU21623XXSP,2013-06-27 13:36:00,
2013-06-27 08:41:00,81.5,77.2,30.03,North,0,0.0,0.0,87,0.00,,,0.00,WUHU21623XXSP,2013-06-27 13:41:00,
2013-06-27 08:46:00,81.7,77.4,30.03,North,0,0.0,0.0,86,0.00,,,0.00,WUHU21623XXSP,2013-06-27 13:46:00,
2013-06-27 08:51:00,82.0,77.4,30.03,North,0,0.0,0.0,86,0.00,,,0.00,WUHU21623XXSP,2013-06-27 13:51:00,
2013-06-27 08:56:00,82.2,77.4,30.02,North,0,0.0,0.0,86,0.00,,,0.00,WUHU21623XXSP,2013-06-27 13:56:00,
2013-06-27 09:01:00,82.2,76.9,30.03,North,0,0.0,0.0,84,0.00,,,0.00,WUHU21623XXSP,2013-06-27 14:01:00,
2013-06-27 09:06:00,82.6,77.6,30.02,North,0,0.0,0.0,85,0.00,,,0.00,WUHU21623XXSP,2013-06-27 14:06:00,
2013-06-27 09:11:00,82.9,77.3,30.01,North,0,0.0,0.0,83,0.00,,,0.00,WUHU21623XXSP,2013-06-27 14:11:00,
2013-06-27 09:16:00,83.1,77.3,30.01,North,0,0.0,0.0,83,0.00,,,0.00,WUHU21623XXSP,2013-06-27 14:16:00,
2013-06-27 09:21:00,83.5,77.6,30.01,North,0,0.0,0.0,82,0.00,,,0.00,WUHU21623XXSP,2013-06-27 14:21:00,
2013-06-27 09:26:00,83.5,77.4,30.02,North,0,0.0,0.0,82,0.00,,,0.00,WUHU21623XXSP,2013-06-27 14:26:00,
2013-06-27 09:31:00,83.5,77.4,30.01,North,0,0.0,0.0,82,0.00,,,0.00,WUHU21623XXSP,2013-06-27 14:31:00,
2013-06-27 09:36:00,84.0,77.5,30.02,North,0,0.0,0.0,81,0.00,,,0.00,WUHU21623XXSP,2013-06-27 14:36:00,
2013-06-27 09:41:00,84.0,77.5,30.01,North,0,0.0,0.0,81,0.00,,,0.00,WUHU21623XXSP,2013-06-27 14:41:00,
2013-06-27 09:46:00,84.4,77.5,30.01,North,0,0.0,0.0,79,0.00,,,0.00,WUHU21623XXSP,2013-06-27 14:46:00,
2013-06-27 09:51:00,84.6,77.7,30.01,North,0,0.0,0.0,80,0.00,,,0.00,WUHU21623XXSP,2013-06-27 14:51:00,
2013-06-27 09:56:00,84.7,77.9,30.00,North,0,0.0,0.0,80,0.00,,,0.00,WUHU21623XXSP,2013-06-27 14:56:00,
2013-06-27 10:01:00,85.1,77.9,30.01,North,0,0.0,0.0,79,0.00,,,0.00,WUHU21623XXSP,2013-06-27 15:01:00,
2013-06-27 10:06:00,85.3,78.0,30.01,North,0,0.0,0.0,79,0.00,,,0.00,WUHU21623XXSP,2013-06-27 15:06:00,
2013-06-27 10:11:00,85.6,78.0,30.01,North,0,0.0,0.0,78,0.00,,,0.00,WUHU21623XXSP,2013-06-27 15:11:00,
2013-06-27 10:16:00,85.8,77.8,30.01,North,0,0.0,0.0,77,0.00,,,0.00,WUHU21623XXSP,2013-06-27 15:16:00,
2013-06-27 10:21:00,86.2,78.0,30.01,North,0,0.0,0.0,77,0.00,,,0.00,WUHU21623XXSP,2013-06-27 15:21:00,
2013-06-27 10:26:00,86.2,77.7,30.02,North,0,0.0,0.0,76,0.00,,,0.00,WUHU21623XXSP,2013-06-27 15:26:00,
2013-06-27 10:31:00,86.5,78.1,30.01,North,0,0.0,0.0,76,0.00,,,0.00,WUHU21623XXSP,2013-06-27 15:31:00,
2013-06-27 10:36:00,86.7,78.1,30.01,North,0,0.0,0.0,76,0.00,,,0.00,WUHU21623XXSP,2013-06-27 15:36:00,
2013-06-27 10:41:00,86.7,77.9,30.02,North,0,0.0,0.0,75,0.00,,,0.00,WUHU21623XXSP,2013-06-27 15:41:00,
2013-06-27 10:46:00,87.1,78.2,30.01,North,0,0.0,0.0,75,0.00,,,0.00,WUHU21623XXSP,2013-06-27 15:46:00,
2013-06-27 10:51:00,87.3,78.2,30.01,North,0,0.0,0.0,75,0.00,,,0.00,WUHU21623XXSP,2013-06-27 15:51:00,
2013-06-27 10:56:00,87.4,77.7,30.01,North,0,0.0,0.0,73,0.00,,,0.00,WUHU21623XXSP,2013-06-27 15:56:00,
2013-06-27 11:01:00,87.6,77.5,30.01,North,0,0.0,0.0,72,0.00,,,0.00,WUHU21623XXSP,2013-06-27 16:01:00,
2013-06-27 11:06:00,87.8,77.8,30.01,North,0,0.0,0.0,72,0.00,,,0.00,WUHU21623XXSP,2013-06-27 16:06:00,
2013-06-27 11:11:00,88.0,77.8,30.02,North,0,0.0,0.0,72,0.00,,,0.00,WUHU21623XXSP,2013-06-27 16:11:00,
2013-06-27 11:16:00,88.2,77.6,30.01,North,0,0.0,0.0,71,0.00,,,0.00,WUHU21623XXSP,2013-06-27 16:16:00,
2013-06-27 11:21:00,88.3,77.8,30.02,North,0,0.0,0.0,71,0.00,,,0.00,WUHU21623XXSP,2013-06-27 16:21:00,
2013-06-27 11:26:00,88.5,77.8,30.02,North,0,0.0,0.0,71,0.00,,,0.00,WUHU21623XXSP,2013-06-27 16:26:00,
2013-06-27 11:31:00,88.9,78.3,30.01,North,0,0.0,0.0,71,0.00,,,0.00,WUHU21623XXSP,2013-06-27 16:31:00,
2013-06-27 11:36:00,89.2,78.3,30.01,North,0,0.0,0.0,70,0.00,,,0.00,WUHU21623XXSP,2013-06-27 16:36:00,
2013-06-27 11:41:00,89.4,78.4,30.01,North,0,0.0,0.0,69,0.00,,,0.00,WUHU21623XXSP,2013-06-27 16:41:00,
2013-06-27 11:46:00,89.8,77.8,30.01,North,0,0.0,0.0,68,0.00,,,0.00,WUHU21623XXSP,2013-06-27 16:46:00,
2013-06-27 11:51:00,89.8,77.8,30.01,North,0,0.0,0.0,68,0.00,,,0.00,WUHU21623XXSP,2013-06-27 16:51:00,
2013-06-27 11:56:00,90.0,78.0,30.01,North,0,0.0,0.0,68,0.00,,,0.00,WUHU21623XXSP,2013-06-27 16:56:00,
2013-06-27 12:01:00,90.3,78.3,30.01,North,0,0.0,0.0,68,0.00,,,0.00,WUHU21623XXSP,2013-06-27 17:01:00,
2013-06-27 12:06:00,90.7,78.3,30.01,North,0,0.0,0.0,68,0.00,,,0.00,WUHU21623XXSP,2013-06-27 17:06:00,
2013-06-27 12:11:00,91.0,78.0,30.01,North,0,0.0,0.0,66,0.00,,,0.00,WUHU21623XXSP,2013-06-27 17:11:00,
2013-06-27 12:16:00,91.2,78.2,30.00,North,0,0.0,0.0,66,0.00,,,0.00,WUHU21623XXSP,2013-06-27 17:16:00,
2013-06-27 12:21:00,91.6,78.1,30.00,North,0,0.0,0.0,65,0.00,,,0.00,WUHU21623XXSP,2013-06-27 17:21:00,
2013-06-27 12:26:00,91.9,78.4,30.00,North,0,0.0,0.0,65,0.00,,,0.00,WUHU21623XXSP,2013-06-27 17:26:00,
2013-06-27 12:31:00,92.3,78.3,30.00,North,0,0.0,0.0,64,0.00,,,0.00,WUHU21623XXSP,2013-06-27 17:31:00,
2013-06-27 12:36:00,92.5,78.0,30.01,North,0,0.0,0.0,63,0.00,,,0.00,WUHU21623XXSP,2013-06-27 17:36:00,
2013-06-27 12:41:00,92.3,77.9,30.00,North,0,0.0,0.0,63,0.00,,,0.00,WUHU21623XXSP,2013-06-27 17:41:00,
2013-06-27 12:46:00,92.1,77.7,30.00,North,0,0.0,0.0,63,0.00,,,0.00,WUHU21623XXSP,2013-06-27 17:46:00,
2013-06-27 12:51:00,92.1,78.2,30.00,North,0,0.0,0.0,64,0.00,,,0.00,WUHU21623XXSP,2013-06-27 17:51:00,
2013-06-27 12:56:00,92.3,77.9,30.00,North,0,0.0,0.0,63,0.00,,,0.00,WUHU21623XXSP,2013-06-27 17:56:00,
2013-06-27 13:01:00,92.3,77.4,30.00,North,0,0.0,0.0,62,0.00,,,0.00,WUHU21623XXSP,2013-06-27 18:01:00,
2013-06-27 13:06:00,92.1,77.7,30.00,North,0,0.0,0.0,63,0.00,,,0.00,WUHU21623XXSP,2013-06-27 18:06:00,
2013-06-27 13:11:00,92.1,78.2,29.99,North,0,0.0,0.0,64,0.00,,,0.00,WUHU21623XXSP,2013-06-27 18:11:00,
2013-06-27 13:16:00,92.1,78.2,29.99,North,0,0.0,0.0,64,0.00,,,0.00,WUHU21623XXSP,2013-06-27 18:16:00,
2013-06-27 13:21:00,92.1,78.2,29.99,North,0,0.0,0.0,64,0.00,,,0.00,WUHU21623XXSP,2013-06-27 18:21:00,
2013-06-27 13:26:00,92.1,77.7,29.99,North,0,0.0,0.0,63,0.00,,,0.00,WUHU21623XXSP,2013-06-27 18:26:00,
2013-06-27 13:31:00,92.3,77.4,29.99,North,0,0.0,0.0,62,0.00,,,0.00,WUHU21623XXSP,2013-06-27 18:31:00,
2013-06-27 13:36:00,92.5,78.0,29.99,North,0,0.0,0.0,63,0.00,,,0.00,WUHU21623XXSP,2013-06-27 18:36:00,
2013-06-27 13:41:00,92.5,78.0,29.98,North,0,0.0,0.0,63,0.00,,,0.00,WUHU21623XXSP,2013-06-27 18:41:00,
2013-06-27 13:46:00,92.8,78.4,29.98,North,0,0.0,0.0,63,0.00,,,0.00,WUHU21623XXSP,2013-06-27 18:46:00,
2013-06-27 13:51:00,93.0,78.6,29.98,North,0,0.0,0.0,63,0.00,,,0.00,WUHU21623XXSP,2013-06-27 18:51:00,
2013-06-27 13:56:00,93.4,78.9,29.98,North,0,0.0,0.0,63,0.00,,,0.00,WUHU21623XXSP,2013-06-27 18:56:00,
2013-06-27 14:01:00,94.1,79.1,29.98,North,0,0.0,0.0,62,0.00,,,0.00,WUHU21623XXSP,2013-06-27 19:01:00,
2013-06-27 14:06:00,94.6,78.1,29.98,North,0,0.0,0.0,59,0.00,,,0.00,WUHU21623XXSP,2013-06-27 19:06:00,
2013-06-27 14:11:00,94.8,78.8,29.98,North,0,0.0,0.0,60,0.00,,,0.00,WUHU21623XXSP,2013-06-27 19:11:00,
2013-06-27 14:16:00,95.4,79.3,29.97,North,0,0.0,0.0,60,0.00,,,0.00,WUHU21623XXSP,2013-06-27 19:16:00,
2013-06-27 14:21:00,95.5,79.5,29.97,North,0,0.0,0.0,60,0.00,,,0.00,WUHU21623XXSP,2013-06-27 19:21:00,
2013-06-27 14:26:00,96.1,80.0,29.96,North,0,0.0,0.0,60,0.00,,,0.00,WUHU21623XXSP,2013-06-27 19:26:00,
2013-06-27 14:31:00,96.4,79.7,29.96,North,0,0.0,0.0,59,0.00,,,0.00,WUHU21623XXSP,2013-06-27 19:31:00,
2013-06-27 14:36:00,96.6,79.4,29.96,North,0,0.0,0.0,58,0.00,,,0.00,WUHU21623XXSP,2013-06-27 19:36:00,
2013-06-27 14:41:00,96.8,78.4,29.96,North,0,0.0,0.0,56,0.00,,,0.00,WUHU21623XXSP,2013-06-27 19:41:00,
2013-06-27 14:46:00,96.6,78.3,29.95,North,0,0.0,0.0,56,0.00,,,0.00,WUHU21623XXSP,2013-06-27 19:46:00,
2013-06-27 14:51:00,96.4,78.1,29.95,North,0,0.0,0.0,56,0.00,,,0.00,WUHU21623XXSP,2013-06-27 19:51:00,
2013-06-27 14:56:00,96.4,78.1,29.95,North,0,0.0,0.0,56,0.00,,,0.00,WUHU21623XXSP,2013-06-27 19:56:00,
2013-06-27 15:01:00,95.9,78.2,29.95,North,0,0.0,0.0,57,0.00,,,0.00,WUHU21623XXSP,2013-06-27 20:01:00,
2013-06-27 15:06:00,95.5,77.8,29.95,North,0,0.0,0.0,57,0.00,,,0.00,WUHU21623XXSP,2013-06-27 20:06:00,
2013-06-27 15:11:00,95.2,77.5,29.95,North,0,0.0,0.0,57,0.00,,,0.00,WUHU21623XXSP,2013-06-27 20:11:00,
2013-06-27 15:16:00,94.8,77.7,29.95,North,0,0.0,0.0,58,0.00,,,0.00,WUHU21623XXSP,2013-06-27 20:16:00,
2013-06-27 15:21:00,94.6,77.6,29.95,North,0,0.0,0.0,58,0.00,,,0.00,WUHU21623XXSP,2013-06-27 20:21:00,
2013-06-27 15:26:00,94.1,77.1,29.95,North,0,0.0,0.0,58,0.00,,,0.00,WUHU21623XXSP,2013-06-27 20:26:00,
2013-06-27 15:32:00,93.9,76.9,29.95,North,0,0.0,0.0,58,0.00,,,0.00,WUHU21623XXSP,2013-06-27 20:32:00,
2013-06-27 15:37:00,93.9,76.9,29.94,North,0,0.0,0.0,58,0.00,,,0.00,WUHU21623XXSP,2013-06-27 20:37:00,
2013-06-27 15:42:00,93.9,76.4,29.94,North,0,0.0,0.0,57,0.00,,,0.00,WUHU21623XXSP,2013-06-27 20:42:00,
2013-06-27 15:47:00,93.7,76.9,29.94,North,0,0.0,0.0,58,0.00,,,0.00,WUHU21623XXSP,2013-06-27 20:47:00,
2013-06-27 15:52:00,93.7,76.7,29.94,North,0,0.0,0.0,58,0.00,,,0.00,WUHU21623XXSP,2013-06-27 20:52:00,
2013-06-27 15:57:00,93.7,77.3,29.94,North,0,0.0,0.0,59,0.00,,,0.00,WUHU21623XXSP,2013-06-27 20:57:00,
2013-06-27 16:03:00,93.7,76.7,29.94,North,0,0.0,0.0,58,0.00,,,0.00,WUHU21623XXSP,2013-06-27 21:03:00,
2013-06-27 16:08:00,93.9,76.9,29.94,North,0,0.0,0.0,58,0.00,,,0.00,WUHU21623XXSP,2013-06-27 21:08:00,
2013-06-27 16:13:00,94.6,77.6,29.94,North,0,0.0,0.0,58,0.00,,,0.00,WUHU21623XXSP,2013-06-27 21:13:00,
2013-06-27 16:19:00,94.8,77.2,29.94,North,0,0.0,0.0,57,0.00,,,0.00,WUHU21623XXSP,2013-06-27 21:19:00,
2013-06-27 16:24:00,95.5,76.2,29.94,North,0,0.0,0.0,54,0.00,,,0.00,WUHU21623XXSP,2013-06-27 21:24:00,
2013-06-27 16:29:00,96.1,76.2,29.94,North,0,0.0,0.0,53,0.00,,,0.00,WUHU21623XXSP,2013-06-27 21:29:00,
2013-06-27 16:34:00,96.4,76.5,29.94,North,0,0.0,0.0,53,0.00,,,0.00,WUHU21623XXSP,2013-06-27 21:34:00,
2013-06-27 16:39:00,97.0,77.0,29.93,North,0,0.0,0.0,53,0.00,,,0.00,WUHU21623XXSP,2013-06-27 21:39:00,
2013-06-27 16:44:00,97.5,76.9,29.93,North,0,0.0,0.0,52,0.00,,,0.00,WUHU21623XXSP,2013-06-27 21:44:00,
2013-06-27 16:49:00,97.9,78.4,29.93,North,0,0.0,0.0,54,0.00,,,0.00,WUHU21623XXSP,2013-06-27 21:49:00,
2013-06-27 16:54:00,98.4,80.0,29.93,North,0,0.0,0.0,56,0.00,,,0.00,WUHU21623XXSP,2013-06-27 21:54:00,
2013-06-27 17:00:00,98.4,80.5,29.93,North,0,0.0,0.0,57,0.00,,,0.00,WUHU21623XXSP,2013-06-27 22:00:00,
2013-06-27 17:05:00,98.4,81.1,29.93,North,0,0.0,0.0,58,0.00,,,0.00,WUHU21623XXSP,2013-06-27 22:05:00,
2013-06-27 17:10:00,98.2,80.9,29.94,North,0,0.0,0.0,58,0.00,,,0.00,WUHU21623XXSP,2013-06-27 22:10:00,
2013-06-27 17:15:00,97.9,80.6,29.93,North,0,0.0,0.0,58,0.00,,,0.00,WUHU21623XXSP,2013-06-27 22:15:00,
2013-06-27 17:20:00,97.3,80.6,29.93,North,0,0.0,0.0,59,0.00,,,0.00,WUHU21623XXSP,2013-06-27 22:20:00,
2013-06-27 17:25:00,96.4,80.3,29.93,North,0,0.0,0.0,60,0.00,,,0.00,WUHU21623XXSP,2013-06-27 22:25:00,
2013-06-27 17:30:00,95.7,79.6,29.93,North,0,0.0,0.0,60,0.00,,,0.00,WUHU21623XXSP,2013-06-27 22:30:00,
2013-06-27 17:35:00,94.8,79.8,29.92,North,0,0.0,0.0,62,0.00,,,0.00,WUHU21623XXSP,2013-06-27 22:35:00,
2013-06-27 17:41:00,94.3,79.7,29.93,North,0,0.0,0.0,63,0.00,,,0.00,WUHU21623XXSP,2013-06-27 22:41:00,
2013-06-27 17:46:00,93.9,79.4,29.92,North,0,0.0,0.0,63,0.00,,,0.00,WUHU21623XXSP,2013-06-27 22:46:00,
2013-06-27 17:51:00,93.4,79.4,29.92,North,0,0.0,0.0,64,0.00,,,0.00,WUHU21623XXSP,2013-06-27 22:51:00,
2013-06-27 17:56:00,93.4,79.9,29.92,North,0,0.0,0.0,65,0.00,,,0.00,WUHU21623XXSP,2013-06-27 22:56:00,
2013-06-27 18:01:00,93.6,80.0,29.92,North,0,0.0,0.0,65,0.00,,,0.00,WUHU21623XXSP,2013-06-27 23:01:00,
2013-06-27 18:06:00,93.9,80.3,29.92,North,0,0.0,0.0,65,0.00,,,0.00,WUHU21623XXSP,2013-06-27 23:06:00,
2013-06-27 18:11:00,94.3,80.7,29.92,North,0,0.0,0.0,65,0.00,,,0.00,WUHU21623XXSP,2013-06-27 23:11:00,
2013-06-27 18:16:00,94.6,80.4,29.92,North,0,0.0,0.0,65,0.00,,,0.00,WUHU21623XXSP,2013-06-27 23:16:00,
2013-06-27 18:21:00,94.8,81.2,29.92,North,0,0.0,0.0,65,0.00,,,0.00,WUHU21623XXSP,2013-06-27 23:21:00,
2013-06-27 18:26:00,94.8,81.2,29.92,North,0,0.0,0.0,65,0.00,,,0.00,WUHU21623XXSP,2013-06-27 23:26:00,
2013-06-27 18:31:00,95.0,80.9,29.92,North,0,0.0,0.0,64,0.00,,,0.00,WUHU21623XXSP,2013-06-27 23:31:00,
2013-06-27 18:36:00,94.8,80.7,29.92,North,0,0.0,0.0,64,0.00,,,0.00,WUHU21623XXSP,2013-06-27 23:36:00,
2013-06-27 18:41:00,94.3,80.5,29.92,North,0,0.0,0.0,64,0.00,,,0.00,WUHU21623XXSP,2013-06-27 23:41:00,
2013-06-27 18:47:00,93.9,79.9,29.92,North,0,0.0,0.0,64,0.00,,,0.00,WUHU21623XXSP,2013-06-27 23:47:00,
2013-06-27 18:52:00,93.4,79.4,29.92,North,0,0.0,0.0,64,0.00,,,0.00,WUHU21623XXSP,2013-06-27 23:52:00,
2013-06-27 18:57:00,92.5,79.3,29.92,North,0,0.0,0.0,65,0.00,,,0.00,WUHU21623XXSP,2013-06-27 23:57:00,
2013-06-27 19:02:00,91.9,78.4,29.92,North,0,0.0,0.0,65,0.00,,,0.00,WUHU21623XXSP,2013-06-28 00:02:00,
2013-06-27 19:07:00,91.6,78.5,29.92,North,0,0.0,0.0,66,0.00,,,0.00,WUHU21623XXSP,2013-06-28 00:07:00,
2013-06-27 19:12:00,90.7,78.2,29.92,North,0,0.0,0.0,67,0.00,,,0.00,WUHU21623XXSP,2013-06-28 00:12:00,
2013-06-27 19:17:00,90.3,77.9,29.92,North,0,0.0,0.0,67,0.00,,,0.00,WUHU21623XXSP,2013-06-28 00:17:00,
2013-06-27 19:22:00,89.8,77.4,29.92,North,0,0.0,0.0,67,0.00,,,0.00,WUHU21623XXSP,2013-06-28 00:22:00,
2013-06-27 19:28:00,89.4,77.2,29.92,North,0,0.0,0.0,67,0.00,,,0.00,WUHU21623XXSP,2013-06-28 00:28:00,
2013-06-27 19:33:00,88.9,77.0,29.92,North,0,0.0,0.0,68,0.00,,,0.00,WUHU21623XXSP,2013-06-28 00:33:00,
2013-06-27 19:38:00,88.5,77.1,29.92,North,0,0.0,0.0,69,0.00,,,0.00,WUHU21623XXSP,2013-06-28 00:38:00,
2013-06-27 19:43:00,88.3,76.9,29.92,North,0,0.0,0.0,69,0.00,,,0.00,WUHU21623XXSP,2013-06-28 00:43:00,
2013-06-27 19:48:00,88.0,77.2,29.92,North,0,0.0,0.0,70,0.00,,,0.00,WUHU21623XXSP,2013-06-28 00:48:00,
2013-06-27 19:53:00,87.6,77.1,29.92,North,0,0.0,0.0,71,0.00,,,0.00,WUHU21623XXSP,2013-06-28 00:53:00,
2013-06-27 19:58:00,87.6,77.1,29.92,North,0,0.0,0.0,71,0.00,,,0.00,WUHU21623XXSP,2013-06-28 00:58:00,
2013-06-27 20:04:00,87.1,76.6,29.93,North,0,0.0,0.0,71,0.00,,,0.00,WUHU21623XXSP,2013-06-28 01:04:00,
2013-06-27 20:09:00,86.7,76.2,29.93,North,0,0.0,0.0,71,0.00,,,0.00,WUHU21623XXSP,2013-06-28 01:09:00,
2013-06-27 20:14:00,86.5,76.5,29.93,North,0,0.0,0.0,72,0.00,,,0.00,WUHU21623XXSP,2013-06-28 01:14:00,
2013-06-27 20:19:00,86.2,76.6,29.93,North,0,0.0,0.0,73,0.00,,,0.00,WUHU21623XXSP,2013-06-28 01:19:00,
2013-06-27 20:24:00,85.8,76.6,29.93,North,0,0.0,0.0,73,0.00,,,0.00,WUHU21623XXSP,2013-06-28 01:24:00,
2013-06-27 20:29:00,85.6,76.6,29.93,North,0,0.0,0.0,74,0.00,,,0.00,WUHU21623XXSP,2013-06-28 01:29:00,
2013-06-27 20:34:00,85.3,76.1,29.93,North,0,0.0,0.0,74,0.00,,,0.00,WUHU21623XXSP,2013-06-28 01:34:00,
2013-06-27 20:40:00,85.3,76.5,29.93,North,0,0.0,0.0,75,0.00,,,0.00,WUHU21623XXSP,2013-06-28 01:40:00,
2013-06-27 20:45:00,84.9,76.1,29.93,North,0,0.0,0.0,75,0.00,,,0.00,WUHU21623XXSP,2013-06-28 01:45:00,
2013-06-27 20:50:00,84.6,75.7,29.93,North,0,0.0,0.0,75,0.00,,,0.00,WUHU21623XXSP,2013-06-28 01:50:00,
2013-06-27 20:55:00,84.4,75.7,29.94,North,0,0.0,0.0,75,0.00,,,0.00,WUHU21623XXSP,2013-06-28 01:55:00,
2013-06-27 21:00:00,84.2,75.8,29.94,North,0,0.0,0.0,76,0.00,,,0.00,WUHU21623XXSP,2013-06-28 02:00:00,
2013-06-27 21:05:00,84.0,75.6,29.94,North,0,0.0,0.0,76,0.00,,,0.00,WUHU21623XXSP,2013-06-28 02:05:00,
2013-06-27 21:10:00,84.0,75.6,29.94,North,0,0.0,0.0,76,0.00,,,0.00,WUHU21623XXSP,2013-06-28 02:10:00,
2013-06-27 21:16:00,83.8,75.4,29.95,North,0,0.0,0.0,76,0.00,,,0.00,WUHU21623XXSP,2013-06-28 02:16:00,
2013-06-27 21:21:00,83.5,75.3,29.94,North,0,0.0,0.0,76,0.00,,,0.00,WUHU21623XXSP,2013-06-28 02:21:00,
2013-06-27 21:26:00,83.5,75.5,29.94,North,0,0.0,0.0,77,0.00,,,0.00,WUHU21623XXSP,2013-06-28 02:26:00,
2013-06-27 21:32:00,83.1,75.3,29.94,North,0,0.0,0.0,78,0.00,,,0.00,WUHU21623XXSP,2013-06-28 02:32:00,
2013-06-27 21:37:00,83.1,75.6,29.95,North,0,0.0,0.0,78,0.00,,,0.00,WUHU21623XXSP,2013-06-28 02:37:00,
2013-06-27 21:42:00,82.9,75.8,29.94,North,0,0.0,0.0,79,0.00,,,0.00,WUHU21623XXSP,2013-06-28 02:42:00,
2013-06-27 21:47:00,82.9,75.8,29.95,North,0,0.0,0.0,79,0.00,,,0.00,WUHU21623XXSP,2013-06-28 02:47:00,
2013-06-27 21:52:00,82.8,75.8,29.95,North,0,0.0,0.0,79,0.00,,,0.00,WUHU21623XXSP,2013-06-28 02:52:00,
2013-06-27 21:57:00,82.8,75.7,29.95,North,0,0.0,0.0,79,0.00,,,0.00,WUHU21623XXSP,2013-06-28 02:57:00,
2013-06-27 22:02:00,82.6,75.5,29.95,North,0,0.0,0.0,79,0.00,,,0.00,WUHU21623XXSP,2013-06-28 03:02:00,
2013-06-27 22:07:00,82.6,75.9,29.95,North,0,0.0,0.0,80,0.00,,,0.00,WUHU21623XXSP,2013-06-28 03:07:00,
2013-06-27 22:12:00,82.4,75.7,29.94,North,0,0.0,0.0,80,0.00,,,0.00,WUHU21623XXSP,2013-06-28 03:12:00,
2013-06-27 22:18:00,82.2,75.7,29.94,North,0,0.0,0.0,80,0.00,,,0.00,WUHU21623XXSP,2013-06-28 03:18:00,
2013-06-27 22:23:00,82.2,75.6,29.95,North,0,0.0,0.0,81,0.00,,,0.00,WUHU21623XXSP,2013-06-28 03:23:00,
2013-06-27 22:29:00,82.2,75.9,29.94,North,0,0.0,0.0,81,0.00,,,0.00,WUHU21623XXSP,2013-06-28 03:29:00,
2013-06-27 22:34:00,82.0,75.7,29.94,North,0,0.0,0.0,81,0.00,,,0.00,WUHU21623XXSP,2013-06-28 03:34:00,
2013-06-27 22:39:00,81.9,75.5,29.94,North,0,0.0,0.0,81,0.00,,,0.00,WUHU21623XXSP,2013-06-28 03:39:00,
2013-06-27 22:44:00,81.7,75.4,29.94,North,0,0.0,0.0,81,0.00,,,0.00,WUHU21623XXSP,2013-06-28 03:44:00,
2013-06-27 22:50:00,81.7,75.4,29.94,North,0,0.0,0.0,81,0.00,,,0.00,WUHU21623XXSP,2013-06-28 03:50:00,
2013-06-27 22:55:00,81.5,75.5,29.94,North,0,0.0,0.0,82,0.00,,,0.00,WUHU21623XXSP,2013-06-28 03:55:00,
2013-06-27 23:00:00,81.3,75.3,29.94,North,0,0.0,0.0,82,0.00,,,0.00,WUHU21623XXSP,2013-06-28 04:00:00,
2013-06-27 23:01:00,81.3,75.3,29.94,North,0,0.0,0.0,82,0.00,,,0.00,WUHU21623XXSP,2013-06-28 04:01:00,
2013-06-27 23:02:00,81.3,75.3,29.94,North,0,0.0,0.0,82,0.00,,,0.00,WUHU21623XXSP,2013-06-28 04:02:00,
2013-06-27 23:07:00,81.1,75.2,29.94,North,0,0.0,0.0,82,0.00,,,0.00,WUHU21623XXSP,2013-06-28 04:07:00,
2013-06-27 23:12:00,81.1,75.2,29.95,North,0,0.0,0.0,83,0.00,,,0.00,WUHU21623XXSP,2013-06-28 04:12:00,
2013-06-27 23:17:00,81.0,75.3,29.94,North,0,0.0,0.0,83,0.00,,,0.00,WUHU21623XXSP,2013-06-28 04:17:00,
2013-06-27 23:22:00,80.8,75.1,29.94,North,0,0.0,0.0,83,0.00,,,0.00,WUHU21623XXSP,2013-06-28 04:22:00,
2013-06-27 23:27:00,80.8,75.1,29.94,North,0,0.0,0.0,83,0.00,,,0.00,WUHU21623XXSP,2013-06-28 04:27:00,
2013-06-27 23:32:00,80.6,75.1,29.94,North,0,0.0,0.0,83,0.00,,,0.00,WUHU21623XXSP,2013-06-28 04:32:00,
2013-06-27 23:37:00,80.4,74.8,29.94,North,0,0.0,0.0,83,0.00,,,0.00,WUHU21623XXSP,2013-06-28 04:37:00,
2013-06-27 23:42:00,80.4,75.1,29.94,North,0,0.0,0.0,84,0.00,,,0.00,WUHU21623XXSP,2013-06-28 04:42:00,
2013-06-27 23:47:00,80.2,75.3,29.94,North,0,0.0,0.0,85,0.00,,,0.00,WUHU21623XXSP,2013-06-28 04:47:00,
2013-06-27 23:52:00,80.2,75.3,29.94,North,0,0.0,0.0,85,0.00,,,0.00,WUHU21623XXSP,2013-06-28 04:52:00,
2013-06-27 23:57:00,80.1,75.3,29.93,North,0,0.0,0.0,85,0.00,,,0.00,WUHU21623XXSP,2013-06-28 04:57:00,